Weather History for Salinas, CA

Change the Weather History Date:

Saturday, October 19, 2013

  Actual Average Record
Temperature  
Mean Temperature 61 °F 61 °F  
Max Temperature 78 °F 73 °F 97 °F (1964)
Min Temperature 44 °F 49 °F 31 °F (1939)
Degree Days  
Heating Degree Days 4 5  
Month to date heating degree days 65 71  
Since 1 July heating degree days 188 266  
Cooling Degree Days 0 1  
Month to date cooling degree days 17 19  
Year to date cooling degree days 155 124  
Growing Degree Days 8 (Base 50)    
Moisture  
Dew Point 47 °F    
Average Humidity 64    
Maximum Humidity 96    
Minimum Humidity 31    
Precipitation  
Precipitation 0.00 in 0.02 in 0.85 in (2004)
Month to date precipitation 0.00 0.29  
Year to date precipitation 2.44 9.21  
Since 1 July precipitation 0.11 0.49  
Sea Level Pressure  
Sea Level Pressure 30.06 in    
Wind  
Wind Speed 5 mph (West)    
Max Wind Speed 15 mph    
Max Gust Speed 18 mph    
Visibility 6 miles    
Events Fog    
T = Trace of Precipitation, MM = Missing Value Source: NWS Daily Summary

Daily Weather History Graph

Daily Weather History Graph

Search for Another Location

Airport:

Trip Planner

Search our weather history database for the weather conditions in past years. The results will help you decide how hot, cold, wet, or windy it might be!

Date:

Astronomy

Oct. 19, 2013 Rise Set
Actual Time 7:17 AM PDT 6:24 PM PDT
Civil Twilight 6:51 AM PDT 6:50 PM PDT
Nautical Twilight 6:21 AM PDT 7:20 PM PDT
Astronomical Twilight 5:51 AM PDT 7:50 PM PDT
Moon 6:57 PM PDT (10/19) 7:59 AM PDT (10/19)
Length of Visible Light 11h 58m
Length of Day
11h 06m
Full, 99% of the Moon is Illuminated
Oct 19
Full
Oct 26
Last Quarter
Nov 3
New
Nov 9
First Quarter
Nov 17
Full

Hourly Weather History & Observations

Time (PDT) Temp. Dew Point Humidity Pressure Visibility Wind Dir Wind Speed Gust Speed Precip Events Conditions
12:33 AM 48.2 °F 48.2 °F 100% 30.04 in 0.5 mi ESE 4.6 mph - N/A Fog Fog
12:53 AM 48.9 °F 46.9 °F 93% 30.06 in 1.0 mi East 3.5 mph - N/A   Overcast
1:04 AM 48.2 °F 46.4 °F 93% 30.04 in 3.0 mi Calm Calm - N/A   Mostly Cloudy
1:14 AM 48.2 °F 46.4 °F 93% 30.03 in 4.0 mi East 3.5 mph - N/A   Scattered Clouds
1:53 AM 48.9 °F 46.9 °F 93% 30.06 in 6.0 mi East 5.8 mph - N/A   Clear
2:53 AM 50.0 °F 45.0 °F 83% 30.06 in 7.0 mi Calm Calm - N/A   Clear
3:53 AM 48.9 °F 44.1 °F 83% 30.05 in 8.0 mi SE 3.5 mph - N/A   Clear
4:53 AM 48.0 °F 43.0 °F 83% 30.06 in 8.0 mi Calm Calm - N/A   Clear
5:53 AM 46.9 °F 43.0 °F 86% 30.07 in 6.0 mi Calm Calm - N/A   Clear
6:53 AM 46.0 °F 42.1 °F 86% 30.07 in 6.0 mi Calm Calm - N/A   Clear
7:53 AM 44.1 °F 41.0 °F 89% 30.08 in 5.0 mi Calm Calm - N/A   Clear
8:53 AM 51.1 °F 42.1 °F 71% 30.09 in 8.0 mi Calm Calm - N/A   Clear
9:53 AM 59.0 °F 39.9 °F 49% 30.09 in 9.0 mi ESE 4.6 mph - N/A   Clear
10:53 AM 69.1 °F 41.0 °F 36% 30.08 in 10.0 mi ESE 5.8 mph - N/A   Clear
11:53 AM 73.9 °F 41.0 °F 30% 30.07 in 10.0 mi Calm Calm - N/A   Clear
12:53 PM 72.0 °F 48.9 °F 44% 30.05 in 9.0 mi West 9.2 mph - N/A   Clear
1:53 PM 70.0 °F 48.9 °F 47% 30.04 in 10.0 mi West 11.5 mph - N/A   Clear
2:53 PM 66.9 °F 48.9 °F 52% 30.04 in 10.0 mi WNW 12.7 mph - N/A   Clear
3:53 PM 64.0 °F 50.0 °F 60% 30.04 in 10.0 mi West 12.7 mph - N/A   Clear
4:53 PM 59.0 °F 50.0 °F 72% 30.06 in 8.0 mi West 12.7 mph - N/A   Clear
5:53 PM 57.0 °F 50.0 °F 77% 30.05 in 8.0 mi West 10.4 mph - N/A   Clear
6:28 PM 53.6 °F 50.0 °F 88% 30.03 in 5.0 mi WNW 9.2 mph - N/A   Partly Cloudy
6:50 PM 53.6 °F 50.0 °F 88% 30.03 in 5.0 mi WNW 11.5 mph - N/A   Mostly Cloudy
6:53 PM 53.1 °F 50.0 °F 89% 30.06 in 5.0 mi WNW 10.4 mph - N/A   Mostly Cloudy
7:44 PM 53.6 °F 50.0 °F 88% 30.05 in 2.0 mi West 9.2 mph - N/A   Overcast
7:53 PM 53.1 °F 50.0 °F 89% 30.08 in 4.0 mi West 9.2 mph - N/A   Overcast
8:53 PM 53.1 °F 50.0 °F 89% 30.08 in 5.0 mi West 5.8 mph - N/A   Overcast
9:53 PM 52.0 °F 50.0 °F 93% 30.09 in 3.0 mi NW 5.8 mph - N/A   Overcast
10:53 PM 52.0 °F 50.0 °F 93% 30.08 in 4.0 mi Calm Calm - N/A   Overcast
11:53 PM 52.0 °F 50.0 °F 93% 30.08 in 3.0 mi Calm Calm - N/A   Overcast